TimeEDT,TemperatureF,Dew PointF,Humidity,Sea Level PressureIn,VisibilityMPH,Wind Direction,Wind SpeedMPH,Gust SpeedMPH,PrecipitationIn,Events,Conditions,WindDirDegrees,DateUTC
12:53 AM,46.9,44.1,90,30.06,3.0,Variable,3.5,-,0.16,Rain,Rain,0,2012-10-08 04:53:00
1:53 AM,46.0,43.0,89,30.08,10.0,Calm,Calm,-,0.10,,Overcast,0,2012-10-08 05:53:00
2:53 AM,46.0,43.0,89,30.09,8.0,Calm,Calm,-,0.02,Rain,Light Rain,0,2012-10-08 06:53:00
3:53 AM,44.1,41.0,89,30.08,8.0,Calm,Calm,-,0.00,,Mostly Cloudy,0,2012-10-08 07:53:00
4:18 AM,42.8,39.2,87,30.08,2.5,Calm,Calm,-,N/A,,Clear,0,2012-10-08 08:18:00
4:25 AM,42.8,39.2,87,30.08,6.0,Calm,Calm,-,N/A,,Clear,0,2012-10-08 08:25:00
4:35 AM,41.0,39.2,93,30.08,1.8,Calm,Calm,-,N/A,,Clear,0,2012-10-08 08:35:00
4:46 AM,41.0,39.2,93,30.09,3.0,Calm,Calm,-,N/A,,Clear,0,2012-10-08 08:46:00
4:51 AM,41.0,39.2,93,30.09,2.5,Calm,Calm,-,N/A,,Partly Cloudy,0,2012-10-08 08:51:00
4:53 AM,41.0,39.0,93,30.09,2.0,Calm,Calm,-,N/A,,Scattered Clouds,0,2012-10-08 08:53:00
4:57 AM,41.0,39.2,93,30.09,1.2,Calm,Calm,-,N/A,,Scattered Clouds,0,2012-10-08 08:57:00
5:05 AM,41.0,39.2,93,30.09,1.0,Calm,Calm,-,N/A,,Mist,0,2012-10-08 09:05:00
5:11 AM,41.0,37.4,87,30.09,2.0,Calm,Calm,-,N/A,,Scattered Clouds,0,2012-10-08 09:11:00
5:19 AM,39.2,37.4,93,30.10,4.0,Calm,Calm,-,N/A,,Scattered Clouds,0,2012-10-08 09:19:00
5:53 AM,41.0,39.0,93,30.11,10.0,Calm,Calm,-,N/A,,Clear,0,2012-10-08 09:53:00
6:53 AM,41.0,37.9,89,30.15,10.0,Calm,Calm,-,N/A,,Clear,0,2012-10-08 10:53:00
7:28 AM,41.0,39.2,93,30.17,1.2,Calm,Calm,-,N/A,,Partly Cloudy,0,2012-10-08 11:28:00
7:31 AM,41.0,39.2,93,30.17,0.8,Calm,Calm,-,N/A,,Mist,0,2012-10-08 11:31:00
7:39 AM,42.8,39.2,87,30.18,1.2,Calm,Calm,-,N/A,,Partly Cloudy,0,2012-10-08 11:39:00
7:53 AM,42.1,39.9,92,30.19,7.0,Calm,Calm,-,N/A,,Partly Cloudy,0,2012-10-08 11:53:00
8:53 AM,46.9,42.1,83,30.20,10.0,Variable,3.5,-,N/A,,Clear,0,2012-10-08 12:53:00
9:04 AM,48.2,42.8,82,30.20,10.0,Variable,3.5,-,N/A,,Partly Cloudy,0,2012-10-08 13:04:00
9:53 AM,48.9,39.9,71,30.22,10.0,Variable,3.5,-,N/A,,Clear,0,2012-10-08 13:53:00
10:53 AM,51.1,39.0,63,30.22,10.0,WNW,5.8,-,N/A,,Clear,290,2012-10-08 14:53:00
12:53 PM,54.0,37.9,55,30.24,10.0,Variable,4.6,-,0.01,,Scattered Clouds,0,2012-10-08 16:53:00
1:53 PM,55.0,37.9,53,30.24,10.0,West,5.8,-,N/A,,Mostly Cloudy,260,2012-10-08 17:53:00
2:53 PM,55.9,39.0,53,30.24,10.0,SW,3.5,-,N/A,,Mostly Cloudy,220,2012-10-08 18:53:00
3:53 PM,55.9,37.9,51,30.25,10.0,Calm,Calm,-,N/A,,Scattered Clouds,0,2012-10-08 19:53:00
4:53 PM,54.0,42.1,64,30.27,10.0,SW,5.8,-,N/A,,Overcast,220,2012-10-08 20:53:00
5:53 PM,51.1,43.0,74,30.30,10.0,Calm,Calm,-,N/A,,Partly Cloudy,0,2012-10-08 21:53:00
6:53 PM,48.0,43.0,83,30.31,10.0,Calm,Calm,-,N/A,,Mostly Cloudy,0,2012-10-08 22:53:00
7:53 PM,45.0,43.0,93,30.32,10.0,Calm,Calm,-,N/A,,Partly Cloudy,0,2012-10-08 23:53:00
8:53 PM,44.1,42.1,93,30.33,10.0,Calm,Calm,-,N/A,,Partly Cloudy,0,2012-10-09 00:53:00
9:53 PM,43.0,41.0,93,30.35,10.0,Calm,Calm,-,N/A,,Clear,0,2012-10-09 01:53:00
10:53 PM,43.0,39.9,89,30.35,10.0,Calm,Calm,-,N/A,,Clear,0,2012-10-09 02:53:00
11:53 PM,42.1,39.9,92,30.36,10.0,Calm,Calm,-,N/A,,Scattered Clouds,0,2012-10-09 03:53:00